20060215,000016,956108,33.581000,-120.748800,NaN,12.922,33.257,39.050,  NaN,NaN,3.626, NaN, NaN,14.300, NaN,   NaN,13.10,1011.33,85.80,NaN,0.0,NaN,6.3,NaN,309.8,NaN,12.3,NaN,NaN,1.436,NaN,62.0,NaN,NaN,NaN,2,0.8,000012,   NaN,309.8,     NaN,      NaN,NaN,1.1,NaN, NaN,0.221,NaN,NaN, NaN, NaN,NaN
20060215,000046,956138,33.581000,-120.748800,NaN,12.912,33.257,39.050,  NaN,NaN,3.692, NaN, NaN,14.300, NaN,   NaN,13.20,1011.23,86.90,NaN,19.0,NaN,6.6,NaN,328.0,NaN,12.8,NaN,NaN,1.449,NaN,50.0,NaN,NaN,NaN,2,0.7,000042,   NaN,308.0,     NaN,      NaN,NaN,0.9,NaN, NaN,0.225,NaN,NaN, NaN, NaN,NaN
20060215,000116,956168,33.581000,-120.748800,NaN,12.922,33.257,39.050,  NaN,NaN,3.611, NaN, NaN,14.200, NaN,   NaN,13.10,1011.54,85.70,NaN,8.0,NaN,7.0,NaN,311.8,NaN,13.5,NaN,NaN,1.433,NaN,83.0,NaN,NaN,NaN,2,1.0,000112,   NaN,303.2,     NaN,      NaN,NaN,0.9,NaN, NaN,0.224,NaN,NaN, NaN, NaN,NaN
20060215,000146,956198,33.581000,-120.748700,NaN,12.922,33.247,39.050,  NaN,NaN,3.469, NaN, NaN,14.300, NaN,   NaN,13.10,1011.21,85.50,NaN,17.0,NaN,7.7,NaN,320.2,NaN,14.9,NaN,NaN,1.404,NaN,127.0,NaN,NaN,NaN,2,0.5,000142,   NaN,302.6,     NaN,      NaN,NaN,0.9,NaN, NaN,0.222,NaN,NaN, NaN, NaN,NaN
20060215,000216,956228,33.581000,-120.748700,NaN,12.922,33.247,39.050,  NaN,NaN,3.469, NaN, NaN,14.300, NaN,   NaN,13.10,1011.12,85.60,NaN,17.0,NaN,5.8,NaN,320.0,NaN,11.3,NaN,NaN,1.404,NaN,126.0,NaN,NaN,NaN,2,0.9,000212,   NaN,301.7,     NaN,      NaN,NaN,1.0,NaN, NaN,0.222,NaN,NaN, NaN, NaN,NaN
20060215,000246,956258,33.581000,-120.748500,NaN,12.922,33.247,39.050,  NaN,NaN,3.483, NaN, NaN,14.300, NaN,   NaN,13.10,1011.31,85.50,NaN,15.0,NaN,6.4,NaN,319.6,NaN,12.4,NaN,NaN,1.407,NaN,119.0,NaN,NaN,NaN,2,0.7,000242,   NaN,303.8,     NaN,      NaN,NaN,0.9,NaN, NaN,0.220,NaN,NaN, NaN, NaN,NaN
20060215,000316,956288,33.581000,-120.748500,NaN,12.922,33.247,39.050,  NaN,NaN,3.513, NaN, NaN,14.300, NaN,   NaN,13.10,1011.16,85.30,NaN,17.0,NaN,4.0,NaN,319.4,NaN,7.7,NaN,NaN,1.413,NaN,132.0,NaN,NaN,NaN,2,0.9,000312,   NaN,300.5,     NaN,      NaN,NaN,0.6,NaN, NaN,0.220,NaN,NaN, NaN, NaN,NaN
20060215,000346,956318,33.580800,-120.748300,NaN,12.932,33.247,39.050,  NaN,NaN,3.498, NaN, NaN,14.300, NaN,   NaN,13.20,1010.98,85.60,NaN,19.0,NaN,5.6,NaN,317.6,NaN,11.0,NaN,NaN,1.410,NaN,102.0,NaN,NaN,NaN,2,1.1,000342,   NaN,296.7,     NaN,      NaN,NaN,0.8,NaN, NaN,0.315,NaN,NaN, NaN, NaN,NaN
20060215,000416,956348,33.580800,-120.748300,NaN,12.922,33.247,39.050,  NaN,NaN,3.430, NaN, NaN,14.300, NaN,   NaN,13.10,1011.05,85.10,NaN,4.0,NaN,4.3,NaN,302.0,NaN,8.3,NaN,NaN,1.396,NaN,90.0,NaN,NaN,NaN,2,1.0,000412,   NaN,297.5,     NaN,      NaN,NaN,1.0,NaN, NaN,0.221,NaN,NaN, NaN, NaN,NaN
20060215,000446,956378,33.580800,-120.748200,NaN,12.922,33.257,39.050,  NaN,NaN,3.479, NaN, NaN,14.300, NaN,   NaN,13.10,1011.10,85.30,NaN,10.0,NaN,4.3,NaN,306.8,NaN,8.4,NaN,NaN,1.406,NaN,168.0,NaN,NaN,NaN,2,0.7,000442,   NaN,296.0,     NaN,      NaN,NaN,1.1,NaN, NaN,0.226,NaN,NaN, NaN, NaN,NaN
20060215,000516,956408,33.580800,-120.748200,NaN,12.922,33.257,39.050,  NaN,NaN,3.552, NaN, NaN,14.300, NaN,   NaN,13.20,1011.28,85.80,NaN,352.0,NaN,4.8,NaN,297.6,NaN,9.3,NaN,NaN,1.421,NaN,325.0,NaN,NaN,NaN,2,0.6,000512,   NaN,306.1,     NaN,      NaN,NaN,1.4,NaN, NaN,0.223,NaN,NaN, NaN, NaN,NaN
20060215,000546,956438,33.580800,-120.748300,NaN,12.922,33.257,39.050,  NaN,NaN,3.636, NaN, NaN,14.300, NaN,   NaN,13.20,1011.39,86.00,NaN,14.0,NaN,4.4,NaN,318.5,NaN,8.6,NaN,NaN,1.438,NaN,123.0,NaN,NaN,NaN,2,0.5,000542,   NaN,303.7,     NaN,      NaN,NaN,1.4,NaN, NaN,0.226,NaN,NaN, NaN, NaN,NaN
20060215,000616,956468,33.580800,-120.748300,NaN,12.922,33.257,39.050,  NaN,NaN,3.450, NaN, NaN,14.300, NaN,   NaN,13.20,1011.28,86.10,NaN,9.0,NaN,5.9,NaN,312.6,NaN,11.4,NaN,NaN,1.400,NaN,317.0,NaN,NaN,NaN,2,0.6,000612,   NaN,303.1,     NaN,      NaN,NaN,1.6,NaN, NaN,0.223,NaN,NaN, NaN, NaN,NaN
20060215,000646,956498,33.580800,-120.748300,NaN,12.922,33.257,39.050,  NaN,NaN,3.503, NaN, NaN,14.300, NaN,   NaN,13.20,1010.98,86.20,NaN,1.0,NaN,4.7,NaN,305.3,NaN,9.1,NaN,NaN,1.411,NaN,281.0,NaN,NaN,NaN,2,0.8,000642,   NaN,304.2,     NaN,      NaN,NaN,1.3,NaN, NaN,0.225,NaN,NaN, NaN, NaN,NaN
20060215,000716,956528,33.581000,-120.748300,NaN,12.922,33.247,39.050,  NaN,NaN,3.687, NaN, NaN,14.300, NaN,   NaN,13.20,1011.06,86.40,NaN,9.0,NaN,5.1,NaN,311.0,NaN,10.0,NaN,NaN,1.448,NaN,327.0,NaN,NaN,NaN,2,0.7,000712,   NaN,301.4,     NaN,      NaN,NaN,1.0,NaN, NaN,0.220,NaN,NaN, NaN, NaN,NaN
20060215,000746,956558,33.581000,-120.748300,NaN,12.922,33.257,39.060,  NaN,NaN,3.601, NaN, NaN,14.300, NaN,   NaN,13.20,1011.21,86.50,NaN,23.0,NaN,5.8,NaN,320.0,NaN,11.3,NaN,NaN,1.431,NaN,266.0,NaN,NaN,NaN,2,0.6,000742,   NaN,295.8,     NaN,      NaN,NaN,0.8,NaN, NaN,0.220,NaN,NaN, NaN, NaN,NaN
20060215,000816,956588,33.580800,-120.748300,NaN,12.932,33.257,39.060,  NaN,NaN,3.547, NaN, NaN,14.300, NaN,   NaN,13.20,1011.34,86.70,NaN,8.0,NaN,5.1,NaN,311.9,NaN,9.9,NaN,NaN,1.420,NaN,148.0,NaN,NaN,NaN,2,0.8,000812,   NaN,303.3,     NaN,      NaN,NaN,1.2,NaN, NaN,0.225,NaN,NaN, NaN, NaN,NaN
20060215,000846,956618,33.580800,-120.748300,NaN,12.932,33.257,39.060,  NaN,NaN,3.626, NaN, NaN,14.300, NaN,   NaN,13.20,1011.31,86.40,NaN,15.0,NaN,5.4,NaN,320.3,NaN,10.5,NaN,NaN,1.436,NaN,136.0,NaN,NaN,NaN,2,0.7,000842,   NaN,304.3,     NaN,      NaN,NaN,1.1,NaN, NaN,0.221,NaN,NaN, NaN, NaN,NaN
20060215,000916,956648,33.580800,-120.748200,NaN,12.932,33.257,39.060,  NaN,NaN,3.661, NaN, NaN,14.300, NaN,   NaN,13.20,1011.32,86.70,NaN,4.0,NaN,4.4,NaN,305.9,NaN,8.6,NaN,NaN,1.443,NaN,180.0,NaN,NaN,NaN,2,0.5,000912,   NaN,301.7,     NaN,      NaN,NaN,1.0,NaN, NaN,0.224,NaN,NaN, NaN, NaN,NaN
20060215,000946,956678,33.580800,-120.748200,NaN,12.932,33.247,39.060,  NaN,NaN,3.722, NaN, NaN,14.300, NaN,   NaN,13.20,1011.43,86.40,NaN,1.0,NaN,6.0,NaN,303.8,NaN,11.6,NaN,NaN,1.455,NaN,91.0,NaN,NaN,NaN,2,1.2,000942,   NaN,302.7,     NaN,      NaN,NaN,0.9,NaN, NaN,0.221,NaN,NaN, NaN, NaN,NaN
20060215,001016,956708,33.580800,-120.748200,NaN,12.932,33.247,39.060,  NaN,NaN,3.666, NaN, NaN,14.300, NaN,   NaN,13.20,1011.29,86.50,NaN,24.0,NaN,5.2,NaN,322.5,NaN,10.1,NaN,NaN,1.444,NaN,115.0,NaN,NaN,NaN,2,0.7,001012,   NaN,296.9,     NaN,      NaN,NaN,0.8,NaN, NaN,0.222,NaN,NaN, NaN, NaN,NaN
20060215,001046,956738,33.580800,-120.748200,NaN,12.932,33.247,39.060,  NaN,NaN,3.592, NaN, NaN,14.300, NaN,   NaN,13.20,1011.03,86.70,NaN,15.0,NaN,5.4,NaN,315.0,NaN,10.5,NaN,NaN,1.429,NaN,225.0,NaN,NaN,NaN,2,0.7,001042,   NaN,299.0,     NaN,      NaN,NaN,1.4,NaN, NaN,0.224,NaN,NaN, NaN, NaN,NaN
20060215,001116,956768,33.580800,-120.748000,NaN,12.932,33.247,39.060,  NaN,NaN,3.611, NaN, NaN,14.300, NaN,   NaN,13.20,1011.21,86.70,NaN,0.0,NaN,2.9,NaN,304.0,NaN,5.6,NaN,NaN,1.433,NaN,154.0,NaN,NaN,NaN,2,1.1,001112,   NaN,304.0,     NaN,      NaN,NaN,0.9,NaN, NaN,0.223,NaN,NaN, NaN, NaN,NaN
20060215,001146,956798,33.580800,-120.748000,NaN,12.932,33.257,39.060,  NaN,NaN,3.523, NaN, NaN,14.300, NaN,   NaN,13.20,1011.44,86.90,NaN,2.0,NaN,4.1,NaN,305.3,NaN,8.0,NaN,NaN,1.415,NaN,123.0,NaN,NaN,NaN,2,1.1,001142,   NaN,303.0,     NaN,      NaN,NaN,0.9,NaN, NaN,0.221,NaN,NaN, NaN, NaN,NaN
20060215,001216,956828,33.580800,-120.748000,NaN,12.932,33.257,39.060,  NaN,NaN,3.567, NaN, NaN,14.300, NaN,   NaN,13.20,1011.48,87.10,NaN,9.0,NaN,4.0,NaN,310.6,NaN,7.7,NaN,NaN,1.424,NaN,110.0,NaN,NaN,NaN,2,0.7,001212,   NaN,300.8,     NaN,      NaN,NaN,1.1,NaN, NaN,0.223,NaN,NaN, NaN, NaN,NaN
20060215,001246,956858,33.580800,-120.747800,NaN,12.941,33.247,39.070,  NaN,NaN,3.503, NaN, NaN,14.300, NaN,   NaN,13.20,1011.27,86.90,NaN,0.0,NaN,3.6,NaN,301.2,NaN,7.0,NaN,NaN,1.411,NaN,122.0,NaN,NaN,NaN,2,1.0,001242,   NaN,301.2,     NaN,      NaN,NaN,0.8,NaN, NaN,0.220,NaN,NaN, NaN, NaN,NaN
20060215,001316,956888,33.580700,-120.747800,NaN,12.951,33.247,39.070,  NaN,NaN,3.513, NaN, NaN,14.300, NaN,   NaN,13.20,1011.30,86.90,NaN,0.0,NaN,3.7,NaN,298.5,NaN,7.2,NaN,NaN,1.413,NaN,138.0,NaN,NaN,NaN,2,1.2,001312,   NaN,298.5,     NaN,      NaN,NaN,0.4,NaN, NaN,0.220,NaN,NaN, NaN, NaN,NaN
20060215,001346,956918,33.580700,-120.747700,NaN,12.941,33.257,39.070,  NaN,NaN,3.527, NaN, NaN,14.200, NaN,   NaN,13.20,1011.33,86.90,NaN,3.0,NaN,5.1,NaN,300.7,NaN,10.0,NaN,NaN,1.416,NaN,125.0,NaN,NaN,NaN,2,0.9,001342,   NaN,297.4,     NaN,      NaN,NaN,0.4,NaN, NaN,0.226,NaN,NaN, NaN, NaN,NaN
20060215,001416,956948,33.580700,-120.747700,NaN,12.941,33.257,39.070,  NaN,NaN,3.488, NaN, NaN,14.300, NaN,   NaN,13.20,1011.14,86.90,NaN,355.0,NaN,4.2,NaN,294.6,NaN,8.2,NaN,NaN,1.408,NaN,91.0,NaN,NaN,NaN,2,1.1,001412,   NaN,300.3,     NaN,      NaN,NaN,0.9,NaN, NaN,0.222,NaN,NaN, NaN, NaN,NaN
20060215,001446,956978,33.580700,-120.747500,NaN,12.932,33.257,39.070,  NaN,NaN,3.483, NaN, NaN,14.300, NaN,   NaN,13.20,1011.36,86.90,NaN,2.0,NaN,5.2,NaN,302.2,NaN,10.2,NaN,NaN,1.407,NaN,122.0,NaN,NaN,NaN,2,0.7,001442,   NaN,300.1,     NaN,      NaN,NaN,0.9,NaN, NaN,0.223,NaN,NaN, NaN, NaN,NaN
20060215,001516,957008,33.580700,-120.747500,NaN,12.932,33.247,39.060,  NaN,NaN,3.606, NaN, NaN,14.300, NaN,   NaN,13.20,1011.33,86.70,NaN,347.0,NaN,4.4,NaN,290.7,NaN,8.5,NaN,NaN,1.432,NaN,110.0,NaN,NaN,NaN,2,1.0,001512,   NaN,305.2,     NaN,      NaN,NaN,1.2,NaN, NaN,0.224,NaN,NaN, NaN, NaN,NaN
20060215,001546,957038,33.580500,-120.747500,NaN,12.932,33.247,39.060,  NaN,NaN,3.606, NaN, NaN,14.300, NaN,   NaN,13.20,1011.42,86.60,NaN,355.0,NaN,5.8,NaN,300.4,NaN,11.2,NaN,NaN,1.432,NaN,100.0,NaN,NaN,NaN,2,1.0,001542,   NaN,305.8,     NaN,      NaN,NaN,0.9,NaN, NaN,0.222,NaN,NaN, NaN, NaN,NaN
20060215,001616,957068,33.580500,-120.747300,NaN,12.932,33.257,39.060,  NaN,NaN,3.646, NaN, NaN,14.300, NaN,   NaN,13.20,1010.98,86.60,NaN,11.0,NaN,4.9,NaN,312.4,NaN,9.5,NaN,NaN,1.440,NaN,133.0,NaN,NaN,NaN,2,1.0,001612,   NaN,300.2,     NaN,      NaN,NaN,1.0,NaN, NaN,0.224,NaN,NaN, NaN, NaN,NaN
20060215,001646,957098,33.580500,-120.747300,NaN,12.932,33.257,39.060,  NaN,NaN,3.666, NaN, NaN,14.300, NaN,   NaN,13.20,1011.44,86.90,NaN,355.0,NaN,5.1,NaN,295.2,NaN,9.9,NaN,NaN,1.444,NaN,103.0,NaN,NaN,NaN,2,1.0,001642,   NaN,300.7,     NaN,      NaN,NaN,1.0,NaN, NaN,0.245,NaN,NaN, NaN, NaN,NaN
20060215,001716,957128,33.580500,-120.747200,NaN,12.932,33.247,39.060,  NaN,NaN,3.616, NaN, NaN,14.300, NaN,   NaN,13.20,1011.17,87.00,NaN,0.0,NaN,4.6,NaN,302.2,NaN,9.0,NaN,NaN,1.434,NaN,115.0,NaN,NaN,NaN,2,0.9,001712,   NaN,302.2,     NaN,      NaN,NaN,0.6,NaN, NaN,0.223,NaN,NaN, NaN, NaN,NaN
20060215,001746,957158,33.580500,-120.747200,NaN,12.932,33.257,39.070,  NaN,NaN,3.567, NaN, NaN,14.300, NaN,   NaN,13.20,1011.38,87.00,NaN,352.0,NaN,4.6,NaN,293.0,NaN,9.0,NaN,NaN,1.424,NaN,76.0,NaN,NaN,NaN,2,1.1,001742,   NaN,302.0,     NaN,      NaN,NaN,0.4,NaN, NaN,0.223,NaN,NaN, NaN, NaN,NaN
20060215,001816,957188,33.580500,-120.747000,NaN,12.932,33.257,39.070,  NaN,NaN,3.557, NaN, NaN,14.300, NaN,   NaN,13.20,1011.25,87.20,NaN,1.0,NaN,3.6,NaN,302.1,NaN,7.0,NaN,NaN,1.422,NaN,111.0,NaN,NaN,NaN,2,1.0,001812,   NaN,301.0,     NaN,      NaN,NaN,0.5,NaN, NaN,0.220,NaN,NaN, NaN, NaN,NaN
20060215,001846,957218,33.580300,-120.746800,NaN,12.932,33.257,39.070,  NaN,NaN,3.763, NaN, NaN,14.300, NaN,   NaN,13.20,1011.28,87.20,NaN,8.0,NaN,4.0,NaN,310.1,NaN,7.8,NaN,NaN,1.463,NaN,124.0,NaN,NaN,NaN,2,1.1,001842,   NaN,301.0,     NaN,      NaN,NaN,0.5,NaN, NaN,0.222,NaN,NaN, NaN, NaN,NaN
20060215,001916,957248,33.580300,-120.746800,NaN,12.932,33.257,39.060,  NaN,NaN,3.747, NaN, NaN,14.300, NaN,   NaN,13.20,1011.38,87.40,NaN,13.0,NaN,2.9,NaN,318.6,NaN,5.6,NaN,NaN,1.460,NaN,133.0,NaN,NaN,NaN,2,1.3,001912,   NaN,302.6,     NaN,      NaN,NaN,0.5,NaN, NaN,0.220,NaN,NaN, NaN, NaN,NaN
20060215,001946,957278,33.580300,-120.746700,NaN,12.932,33.247,39.060,  NaN,NaN,3.677, NaN, NaN,14.300, NaN,   NaN,13.20,1011.27,87.20,NaN,2.0,NaN,4.0,NaN,301.8,NaN,7.7,NaN,NaN,1.446,NaN,114.0,NaN,NaN,NaN,2,1.6,001942,   NaN,299.4,     NaN,      NaN,NaN,0.4,NaN, NaN,0.227,NaN,NaN, NaN, NaN,NaN
20060215,002016,957308,33.580300,-120.746500,NaN,12.932,33.257,39.060,  NaN,NaN,3.747, NaN, NaN,14.300, NaN,   NaN,13.20,1011.31,87.60,NaN,12.0,NaN,3.7,NaN,311.7,NaN,7.1,NaN,NaN,1.460,NaN,126.0,NaN,NaN,NaN,2,0.7,002012,   NaN,298.5,     NaN,      NaN,NaN,0.7,NaN, NaN,0.221,NaN,NaN, NaN, NaN,NaN
20060215,002046,957338,33.580200,-120.746500,NaN,12.932,33.257,39.060,  NaN,NaN,3.737, NaN, NaN,14.300, NaN,   NaN,13.20,1011.24,87.40,NaN,11.0,NaN,5.2,NaN,313.5,NaN,10.0,NaN,NaN,1.458,NaN,113.0,NaN,NaN,NaN,2,0.9,002042,   NaN,301.5,     NaN,      NaN,NaN,0.7,NaN, NaN,0.225,NaN,NaN, NaN, NaN,NaN
20060215,002116,957368,33.580200,-120.746300,NaN,12.932,33.257,39.060,  NaN,NaN,3.707, NaN, NaN,14.300, NaN,   NaN,13.10,1011.38,87.20,NaN,0.0,NaN,4.2,NaN,301.5,NaN,8.2,NaN,NaN,1.452,NaN,124.0,NaN,NaN,NaN,2,1.1,002112,   NaN,301.5,     NaN,      NaN,NaN,0.4,NaN, NaN,0.221,NaN,NaN, NaN, NaN,NaN
20060215,002146,957398,33.580200,-120.746200,NaN,12.932,33.247,39.060,  NaN,NaN,3.682, NaN, NaN,14.300, NaN,   NaN,13.20,1011.34,87.20,NaN,7.0,NaN,3.5,NaN,307.8,NaN,6.8,NaN,NaN,1.447,NaN,136.0,NaN,NaN,NaN,2,1.4,002142,   NaN,299.4,     NaN,      NaN,NaN,0.5,NaN, NaN,0.223,NaN,NaN, NaN, NaN,NaN
20060215,002216,957428,33.580200,-120.746000,NaN,12.932,33.257,39.060,  NaN,NaN,3.671, NaN, NaN,14.300, NaN,   NaN,13.20,1011.32,87.10,NaN,2.0,NaN,3.0,NaN,300.4,NaN,5.8,NaN,NaN,1.445,NaN,100.0,NaN,NaN,NaN,2,1.2,002212,   NaN,298.0,     NaN,      NaN,NaN,0.4,NaN, NaN,0.223,NaN,NaN, NaN, NaN,NaN
20060215,002246,957458,33.580000,-120.745800,NaN,12.932,33.257,39.060,  NaN,NaN,3.656, NaN, NaN,14.300, NaN,   NaN,13.10,1011.22,87.00,NaN,6.0,NaN,4.6,NaN,303.4,NaN,8.9,NaN,NaN,1.442,NaN,120.0,NaN,NaN,NaN,2,1.4,002242,   NaN,296.5,     NaN,      NaN,NaN,0.3,NaN, NaN,0.221,NaN,NaN, NaN, NaN,NaN
20060215,002316,957488,33.580000,-120.745700,NaN,12.932,33.257,39.060,  NaN,NaN,3.717, NaN, NaN,14.300, NaN,   NaN,13.20,1011.26,86.90,NaN,12.0,NaN,4.1,NaN,308.6,NaN,7.9,NaN,NaN,1.454,NaN,117.0,NaN,NaN,NaN,2,1.6,002312,   NaN,294.2,     NaN,      NaN,NaN,0.3,NaN, NaN,0.223,NaN,NaN, NaN, NaN,NaN
20060215,002346,957518,33.580000,-120.745500,NaN,12.932,33.257,39.060,  NaN,NaN,3.656, NaN, NaN,14.300, NaN,   NaN,13.20,1011.43,87.10,NaN,4.0,NaN,4.9,NaN,293.5,NaN,9.6,NaN,NaN,1.442,NaN,84.0,NaN,NaN,NaN,2,1.6,002342,   NaN,288.8,     NaN,      NaN,NaN,0.3,NaN, NaN,0.222,NaN,NaN, NaN, NaN,NaN
20060215,002416,957548,33.579800,-120.745300,NaN,12.932,33.257,39.060,  NaN,NaN,3.809, NaN, NaN,14.300, NaN,   NaN,13.20,1011.10,86.90,NaN,8.0,NaN,6.8,NaN,301.2,NaN,13.2,NaN,NaN,1.472,NaN,130.0,NaN,NaN,NaN,2,0.9,002412,   NaN,292.7,     NaN,      NaN,NaN,0.5,NaN, NaN,0.228,NaN,NaN, NaN, NaN,NaN
20060215,002446,957578,33.579800,-120.745300,NaN,12.932,33.257,39.060,  NaN,NaN,3.747, NaN, NaN,14.300, NaN,   NaN,13.20,1011.11,86.50,NaN,8.0,NaN,5.2,NaN,302.2,NaN,10.1,NaN,NaN,1.460,NaN,129.0,NaN,NaN,NaN,2,0.9,002442,   NaN,293.5,     NaN,      NaN,NaN,0.7,NaN, NaN,0.225,NaN,NaN, NaN, NaN,488.000000
20060215,002516,957608,33.579800,-120.745200,NaN,12.932,33.257,39.060,  NaN,NaN,3.773, NaN, NaN,14.300, NaN,   NaN,13.20,1011.36,86.90,NaN,6.0,NaN,5.7,NaN,302.9,NaN,11.1,NaN,NaN,1.465,NaN,91.0,NaN,NaN,NaN,2,1.1,002512,   NaN,296.3,     NaN,      NaN,NaN,0.9,NaN, NaN,0.221,NaN,NaN, NaN, NaN,NaN
20060215,002546,957638,33.579800,-120.745200,NaN,12.932,33.257,39.060,  NaN,NaN,3.778, NaN, NaN,14.300, NaN,   NaN,13.20,1011.25,86.00,NaN,11.0,NaN,4.6,NaN,307.1,NaN,8.9,NaN,NaN,1.466,NaN,134.0,NaN,NaN,NaN,2,1.2,002542,   NaN,294.6,     NaN,      NaN,NaN,0.9,NaN, NaN,0.222,NaN,NaN, NaN, NaN,NaN
20060215,002616,957668,33.579700,-120.745000,NaN,12.932,33.247,39.060,  NaN,NaN,3.783, NaN, NaN,14.300, NaN,   NaN,13.20,1011.24,85.70,NaN,30.0,NaN,5.4,NaN,322.1,NaN,10.4,NaN,NaN,1.467,NaN,144.0,NaN,NaN,NaN,2,1.4,002612,   NaN,288.2,     NaN,      NaN,NaN,1.0,NaN, NaN,0.224,NaN,NaN, NaN, NaN,NaN
20060215,002646,957698,33.579700,-120.745000,NaN,12.932,33.257,39.060,  NaN,NaN,3.850, NaN, NaN,14.300, NaN,   NaN,13.20,1011.31,86.20,NaN,30.0,NaN,5.3,NaN,319.9,NaN,10.2,NaN,NaN,1.480,NaN,143.0,NaN,NaN,NaN,2,1.4,002642,   NaN,286.0,     NaN,      NaN,NaN,1.1,NaN, NaN,0.224,NaN,NaN, NaN, NaN,489.000000
20060215,002716,957728,33.579700,-120.745000,NaN,12.932,33.257,39.060,  NaN,NaN,3.923, NaN, NaN,14.300, NaN,   NaN,13.20,1011.40,86.10,NaN,23.0,NaN,6.1,NaN,314.5,NaN,11.9,NaN,NaN,1.494,NaN,162.0,NaN,NaN,NaN,2,1.0,002712,   NaN,289.6,     NaN,      NaN,NaN,1.2,NaN, NaN,0.222,NaN,NaN, NaN, NaN,NaN
20060215,002746,957758,33.579700,-120.745000,NaN,12.932,33.257,39.060,  NaN,NaN,3.897, NaN, NaN,14.300, NaN,   NaN,13.20,1011.36,86.10,NaN,20.0,NaN,6.1,NaN,313.4,NaN,11.9,NaN,NaN,1.489,NaN,147.0,NaN,NaN,NaN,2,0.7,002742,   NaN,292.2,     NaN,      NaN,NaN,1.3,NaN, NaN,0.226,NaN,NaN, NaN, NaN,NaN
20060215,002816,957788,33.579500,-120.745000,NaN,12.932,33.257,39.060,  NaN,NaN,3.855, NaN, NaN,14.300, NaN,   NaN,13.20,1011.22,86.00,NaN,9.0,NaN,5.9,NaN,303.5,NaN,11.4,NaN,NaN,1.481,NaN,235.0,NaN,NaN,NaN,2,0.6,002812,   NaN,294.0,     NaN,      NaN,NaN,1.6,NaN, NaN,0.221,NaN,NaN, NaN, NaN,NaN
20060215,002846,957818,33.579500,-120.744800,NaN,12.932,33.257,39.060,  NaN,NaN,3.887, NaN, NaN,14.300, NaN,   NaN,13.20,1011.05,86.10,NaN,14.0,NaN,5.3,NaN,310.0,NaN,10.3,NaN,NaN,1.487,NaN,140.0,NaN,NaN,NaN,2,0.6,002842,   NaN,295.2,     NaN,      NaN,NaN,1.0,NaN, NaN,0.223,NaN,NaN, NaN, NaN,490.000000
20060215,002916,957848,33.579500,-120.744800,NaN,12.932,33.257,39.060,  NaN,NaN,3.928, NaN, NaN,14.300, NaN,   NaN,13.20,1011.09,86.40,NaN,10.0,NaN,5.0,NaN,304.2,NaN,9.7,NaN,NaN,1.495,NaN,179.0,NaN,NaN,NaN,2,0.8,002912,   NaN,293.4,     NaN,      NaN,NaN,1.0,NaN, NaN,0.221,NaN,NaN, NaN, NaN,NaN
20060215,002946,957878,33.579500,-120.744800,NaN,12.932,33.247,39.060,  NaN,NaN,3.892, NaN, NaN,14.300, NaN,   NaN,13.20,1011.00,86.20,NaN,10.0,NaN,5.6,NaN,300.7,NaN,10.9,NaN,NaN,1.488,NaN,337.0,NaN,NaN,NaN,2,0.5,002942,   NaN,290.2,     NaN,      NaN,NaN,0.9,NaN, NaN,0.226,NaN,NaN, NaN, NaN,NaN
20060215,003016,957908,33.579300,-120.744700,NaN,12.932,33.257,39.060,  NaN,NaN,3.881, NaN, NaN,14.300, NaN,   NaN,13.20,1011.22,86.50,NaN,30.0,NaN,5.9,NaN,321.4,NaN,11.5,NaN,NaN,1.486,NaN,145.0,NaN,NaN,NaN,2,1.1,003012,   NaN,288.7,     NaN,      NaN,NaN,1.1,NaN, NaN,0.222,NaN,NaN, NaN, NaN,NaN
20060215,003046,957938,33.579300,-120.744700,NaN,12.932,33.247,39.060,  NaN,NaN,4.002, NaN, NaN,14.300, NaN,   NaN,13.20,1011.13,86.40,NaN,22.0,NaN,4.9,NaN,318.9,NaN,9.5,NaN,NaN,1.509,NaN,221.0,NaN,NaN,NaN,2,1.3,003042,   NaN,294.0,     NaN,      NaN,NaN,1.6,NaN, NaN,0.220,NaN,NaN, NaN, NaN,NaN
20060215,003116,957968,33.579300,-120.744700,NaN,12.932,33.257,39.060,  NaN,NaN,3.965, NaN, NaN,14.300, NaN,   NaN,13.20,1011.15,86.50,NaN,11.0,NaN,4.8,NaN,299.8,NaN,9.4,NaN,NaN,1.502,NaN,219.0,NaN,NaN,NaN,2,0.5,003112,   NaN,288.2,     NaN,      NaN,NaN,1.1,NaN, NaN,0.223,NaN,NaN, NaN, NaN,NaN
20060215,003146,957998,33.579300,-120.744700,NaN,12.922,33.257,39.060,  NaN,NaN,4.034, NaN, NaN,14.200, NaN,   NaN,13.20,1011.28,87.10,NaN,8.0,NaN,2.7,NaN,304.7,NaN,5.3,NaN,NaN,1.515,NaN,136.0,NaN,NaN,NaN,2,0.6,003142,   NaN,295.8,     NaN,      NaN,NaN,1.3,NaN, NaN,0.221,NaN,NaN, NaN, NaN,NaN
20060215,003216,958028,33.579200,-120.744700,NaN,12.922,33.257,39.060,  NaN,NaN,3.960, NaN, NaN,14.300, NaN,   NaN,13.40,1011.32,87.20,NaN,17.0,NaN,5.2,NaN,314.1,NaN,10.1,NaN,NaN,1.501,NaN,94.0,NaN,NaN,NaN,2,1.2,003212,   NaN,295.1,     NaN,      NaN,NaN,0.8,NaN, NaN,0.222,NaN,NaN, NaN, NaN,NaN
20060215,003246,958058,33.579200,-120.744700,NaN,12.922,33.257,39.050,  NaN,NaN,4.002, NaN, NaN,14.300, NaN,   NaN,13.20,1011.04,87.10,NaN,4.0,NaN,5.4,NaN,300.6,NaN,10.4,NaN,NaN,1.509,NaN,286.0,NaN,NaN,NaN,2,1.0,003242,   NaN,296.2,     NaN,      NaN,NaN,0.8,NaN, NaN,0.225,NaN,NaN, NaN, NaN,NaN
20060215,003316,958088,33.579200,-120.744500,NaN,12.922,33.257,39.050,  NaN,NaN,3.960, NaN, NaN,14.300, NaN,   NaN,13.20,1011.04,86.90,NaN,355.0,NaN,4.7,NaN,294.8,NaN,9.2,NaN,NaN,1.501,NaN,153.0,NaN,NaN,NaN,2,1.1,003312,   NaN,300.4,     NaN,      NaN,NaN,1.1,NaN, NaN,0.222,NaN,NaN, NaN, NaN,NaN
20060215,003346,958118,33.579200,-120.744500,NaN,12.922,33.257,39.060,  NaN,NaN,3.971, NaN, NaN,14.200, NaN,   NaN,13.20,1011.40,86.60,NaN,0.0,NaN,6.3,NaN,294.0,NaN,12.3,NaN,NaN,1.503,NaN,182.0,NaN,NaN,NaN,2,0.5,003342,   NaN,294.0,     NaN,      NaN,NaN,0.6,NaN, NaN,0.224,NaN,NaN, NaN, NaN,NaN
20060215,003416,958148,33.579200,-120.744500,NaN,12.932,33.247,39.060,  NaN,NaN,3.907, NaN, NaN,14.300, NaN,   NaN,13.20,1011.09,86.10,NaN,9.0,NaN,6.0,NaN,303.5,NaN,11.7,NaN,NaN,1.491,NaN,341.0,NaN,NaN,NaN,2,0.7,003412,   NaN,294.0,     NaN,      NaN,NaN,1.1,NaN, NaN,0.220,NaN,NaN, NaN, NaN,NaN
20060215,003446,958178,33.579200,-120.744500,NaN,12.971,33.247,39.090,  NaN,NaN,3.819, NaN, NaN,14.300, NaN,   NaN,13.20,1011.16,86.10,NaN,21.0,NaN,5.8,NaN,313.0,NaN,11.3,NaN,NaN,1.474,NaN,246.0,NaN,NaN,NaN,2,0.3,003442,   NaN,291.5,     NaN,      NaN,NaN,0.7,NaN, NaN,0.220,NaN,NaN, NaN, NaN,NaN
20060215,003516,958208,33.579200,-120.744500,NaN,13.011,33.238,39.120,  NaN,NaN,3.717, NaN, NaN,14.300, NaN,   NaN,13.20,1011.01,86.00,NaN,19.0,NaN,4.4,NaN,308.6,NaN,8.6,NaN,NaN,1.454,NaN,102.0,NaN,NaN,NaN,2,0.8,003512,   NaN,287.8,     NaN,      NaN,NaN,1.1,NaN, NaN,0.220,NaN,NaN, NaN, NaN,NaN
20060215,003546,958238,33.579200,-120.744500,NaN,13.011,33.257,39.140,  NaN,NaN,3.747, NaN, NaN,14.300, NaN,   NaN,13.20,1011.18,86.10,NaN,11.0,NaN,5.6,NaN,305.8,NaN,10.8,NaN,NaN,1.460,NaN,272.0,NaN,NaN,NaN,2,0.8,003542,   NaN,294.0,     NaN,      NaN,NaN,1.8,NaN, NaN,0.223,NaN,NaN, NaN, NaN,NaN
20060215,003616,958268,33.579200,-120.744500,NaN,12.951,33.267,39.100,  NaN,NaN,3.928, NaN, NaN,14.300, NaN,   NaN,13.20,1011.13,86.40,NaN,5.0,NaN,4.8,NaN,293.0,NaN,9.3,NaN,NaN,1.495,NaN,274.0,NaN,NaN,NaN,2,0.4,003612,   NaN,287.8,     NaN,      NaN,NaN,1.2,NaN, NaN,0.222,NaN,NaN, NaN, NaN,NaN
20060215,003646,958298,33.579200,-120.744500,NaN,12.932,33.257,39.070,  NaN,NaN,4.104, NaN, NaN,14.300, NaN,   NaN,13.40,1011.11,86.40,NaN,1.0,NaN,5.2,NaN,297.7,NaN,10.1,NaN,NaN,1.528,NaN,297.0,NaN,NaN,NaN,2,0.8,003642,   NaN,296.6,     NaN,      NaN,NaN,1.6,NaN, NaN,0.221,NaN,NaN, NaN, NaN,NaN
20060215,003716,958328,33.579200,-120.744500,NaN,12.932,33.257,39.070,  NaN,NaN,4.109, NaN, NaN,14.300, NaN,   NaN,13.20,1011.07,86.40,NaN,9.0,NaN,4.9,NaN,309.3,NaN,9.6,NaN,NaN,1.529,NaN,132.0,NaN,NaN,NaN,2,0.9,003712,   NaN,299.5,     NaN,      NaN,NaN,0.8,NaN, NaN,0.220,NaN,NaN, NaN, NaN,NaN
20060215,003746,958358,33.579200,-120.744500,NaN,12.981,33.228,39.080,  NaN,NaN,4.099, NaN, NaN,14.300, NaN,   NaN,13.20,1011.23,86.40,NaN,16.0,NaN,5.5,NaN,313.6,NaN,10.7,NaN,NaN,1.527,NaN,130.0,NaN,NaN,NaN,2,0.9,003742,   NaN,296.3,     NaN,      NaN,NaN,0.6,NaN, NaN,0.223,NaN,NaN, NaN, NaN,NaN
20060215,003816,958388,33.579200,-120.744500,NaN,13.050,33.208,39.120,  NaN,NaN,3.793, NaN, NaN,14.300, NaN,   NaN,13.20,1011.19,86.40,NaN,22.0,NaN,4.9,NaN,313.9,NaN,9.5,NaN,NaN,1.469,NaN,126.0,NaN,NaN,NaN,2,0.9,003812,   NaN,289.9,     NaN,      NaN,NaN,0.0,NaN, NaN,0.225,NaN,NaN, NaN, NaN,NaN
20060215,003846,958418,33.579200,-120.744300,NaN,13.298,33.149,39.290,  NaN,NaN,3.306, NaN, NaN,14.400, NaN,   NaN,13.20,1011.20,86.40,NaN,16.0,NaN,6.4,NaN,308.6,NaN,12.5,NaN,NaN,1.370,NaN,56.0,NaN,NaN,NaN,2,0.4,003842,   NaN,292.1,     NaN,      NaN,NaN,1.1,NaN, NaN,0.217,NaN,NaN, NaN, NaN,491.000000
20060215,003916,958448,33.579200,-120.744300,NaN,13.387,33.198,39.430,  NaN,NaN,2.835, NaN, NaN,14.500, NaN,   NaN,13.20,1011.11,86.70,NaN,27.0,NaN,5.5,NaN,318.1,NaN,10.7,NaN,NaN,1.265,NaN,107.0,NaN,NaN,NaN,2,0.8,003912,   NaN,289.2,     NaN,      NaN,NaN,0.8,NaN, NaN,0.214,NaN,NaN, NaN, NaN,NaN
20060215,003946,958478,33.579200,-120.744300,NaN,13.466,33.208,39.510,  NaN,NaN,2.427, NaN, NaN,14.600, NaN,   NaN,13.20,1011.17,86.70,NaN,27.0,NaN,5.6,NaN,309.5,NaN,10.9,NaN,NaN,1.165,NaN,96.0,NaN,NaN,NaN,2,0.6,003942,   NaN,281.1,     NaN,      NaN,NaN,0.8,NaN, NaN,0.211,NaN,NaN, NaN, NaN,NaN